Theta_e
300 300 300 300 300 300 300 300 300 300 301 302 302 301 299 300 300 300 302 303 303 304 304 304 304 305 306 305 305 307 309 311 314 311 313 313 315 316 319 319 321 322 322 323 321 324 327 322 325 329 328 326 330 333
301 300 300 300 300 300 300 301 301 301 300 300 301 301 300 300 300 300 301 303 303 304 303 303 303 304 305 305 305 307 307 308 311 312 316 317 323 314 315 321 321 324 322 324 324 324 321 325 326 327 329 329 331 333
300 300 300 300 300 301 301 301 301 302 301 301 301 300 300 300 300 300 299 300 301 303 303 303 304 303 303 303 304 305 306 310 310 310 309 313 322 314 316 316 325 325 323 325 325 326 326 333 330 330 328 331 331 333
299 299 299 300 300 300 300 300 301 301 301 301 301 301 301 300 300 300 299 299 301 301 303 304 305 305 307 307 307 305 307 308 306 308 308 308 318 319 318 315 318 323 326 328 326 333 334 335 334 334 331 332 333 335
300 299 299 299 299 299 299 300 300 301 301 301 301 300 300 299 299 299 300 301 303 301 303 303 305 308 308 307 307 309 307 305 306 308 311 317 318 321 319 318 318 319 326 329 328 331 328 331 335 334 334 333 334 335
302 302 301 301 301 301 302 302 302 302 302 302 302 303 303 301 301 301 302 305 306 303 302 305 308 310 313 312 309 309 309 307 308 312 316 320 323 322 324 325 324 333 333 331 328 333 333 335 335 335 336 336 337 337
302 302 302 301 301 301 301 301 302 302 303 303 304 304 305 302 302 302 303 305 304 305 304 307 305 311 313 312 309 310 310 311 311 318 318 321 323 325 322 326 327 331 333 335 335 336 339 338 338 338 337 338 338 338
301 301 301 301 301 301 301 302 302 303 303 305 305 306 308 307 305 305 307 304 305 306 304 308 308 310 314 311 312 313 313 313 319 322 323 320 323 325 329 326 329 332 334 335 336 336 336 338 339 339 338 337 336 334
301 301 301 301 301 302 302 302 303 303 305 307 307 308 308 307 307 307 309 308 306 305 307 310 312 311 315 317 315 317 316 318 318 324 324 324 325 328 327 328 328 330 329 334 337 337 338 339 337 336 336 334 335 333
301 302 302 302 302 302 303 302 304 305 308 308 307 308 309 309 308 308 308 307 305 306 306 305 310 309 315 316 315 317 319 318 320 321 321 325 325 328 329 329 331 332 333 334 335 334 336 335 335 333 332 332 332 331
301 302 302 302 302 303 303 304 306 307 309 309 310 308 309 310 309 308 310 310 310 311 310 310 312 314 316 316 312 314 316 318 322 322 326 325 323 324 329 331 332 332 333 334 335 335 335 335 334 333 331 330 330 332
301 302 302 303 303 304 305 306 308 309 309 310 311 311 311 310 311 312 314 313 314 315 313 310 309 314 315 315 312 313 319 319 324 319 325 326 320 326 330 332 331 332 333 333 335 335 333 333 332 331 329 329 330 332
303 303 303 304 304 304 306 307 309 310 310 311 311 310 309 309 310 312 316 315 316 313 315 316 317 316 316 315 312 313 318 321 316 322 325 321 324 325 331 330 331 331 332 332 332 333 332 331 331 332 331 332 332 332
309 309 308 307 307 308 307 308 310 310 310 310 311 308 313 314 314 315 314 314 314 315 316 316 313 316 316 314 313 317 314 316 321 323 323 318 327 327 328 329 331 330 331 330 330 330 331 331 331 332 331 330 327 324
310 310 310 309 308 308 308 308 311 311 311 311 310 309 312 311 310 312 312 313 315 315 316 316 313 314 316 319 315 315 318 320 320 322 321 322 325 327 325 326 327 329 329 329 330 331 330 329 328 326 326 325 323 322
311 311 310 310 308 309 308 310 311 312 312 311 310 309 311 311 312 313 313 313 315 316 316 317 317 319 319 319 322 323 319 320 323 322 321 322 326 327 325 325 325 326 328 328 328 328 327 326 325 324 323 322 321 320
312 311 311 310 309 309 309 310 312 310 309 309 309 310 310 311 312 312 313 315 315 316 317 317 319 320 318 320 322 320 323 313 315 320 320 325 326 327 326 326 324 323 323 325 323 321 322 321 322 323 322 321 321 321
313 313 313 311 310 309 310 310 310 310 310 310 309 311 312 312 312 313 315 317 317 316 315 317 316 317 317 320 322 320 320 322 321 321 321 324 325 325 326 325 324 322 321 321 321 324 324 324 324 324 324 322 319 318
315 316 315 314 313 311 311 312 310 310 311 311 312 313 313 314 314 315 316 317 316 317 317 317 319 319 319 318 318 319 320 320 320 320 320 322 322 323 324 325 325 325 325 325 325 325 325 325 324 322 320 318 316 315
316 316 316 315 315 312 312 312 312 312 312 312 313 314 314 314 315 316 316 316 317 316 316 317 316 315 316 318 319 320 321 320 320 319 319 319 320 321 321 322 324 325 324 323 322 321 321 318 316 315 314 313 313 313
316 316 316 316 316 315 314 313 312 312 313 314 314 314 314 315 314 315 315 316 316 314 315 316 316 317 318 319 320 320 319 318 318 317 317 318 317 318 319 320 320 320 320 319 315 315 314 313 313 312 312 312 312 311
316 317 317 316 316 316 316 314 314 314 315 315 315 314 314 313 313 313 314 315 315 315 315 315 316 316 316 317 318 319 319 319 318 317 317 317 317 315 316 317 316 315 315 315 315 315 313 313 313 313 313 313 313 313
316 316 317 317 317 316 315 316 316 316 313 315 314 313 313 314 314 314 313 313 314 314 315 315 315 315 316 316 316 316 317 317 317 318 318 318 319 319 319 319 317 316 315 315 316 316 316 316 314 314 314 315 315 315
317 317 316 317 317 316 317 317 317 316 315 314 312 312 312 314 314 313 311 314 314 314 314 313 314 314 314 315 315 316 316 316 316 316 316 316 316 317 317 316 316 317 317 317 316 317 318 317 317 316 316 315 315 315
317 317 318 317 318 318 315 314 316 314 313 312 313 312 313 313 310 310 311 314 314 314 314 313 314 313 314 315 315 315 315 315 315 315 315 315 314 315 315 315 316 316 316 316 316 316 315 315 315 315 315 315 315 315
311 318 318 318 317 314 311 311 312 312 313 315 314 314 313 311 312 314 313 314 314 314 313 313 313 314 314 314 314 313 313 313 313 313 314 314 314 314 313 314 314 314 315 315 315 315 315 315 315 314 314 314 313 313
314 317 317 316 316 314 313 313 312 311 312 312 310 311 311 314 314 314 315 315 314 314 314 313 313 313 313 314 314 313 313 312 313 313 313 313 313 313 313 313 313 313 313 313 313 312 312 311 311 311 311 311 311 311
321 321 316 316 315 316 313 313 312 312 311 312 312 312 314 314 312 314 314 315 314 314 314 314 314 314 313 313 313 312 313 313 313 313 313 312 313 313 313 312 312 312 312 312 312 312 312 311 311 311 312 312 312 312
320 319 318 318 315 314 314 314 313 314 314 314 312 311 314 315 315 315 314 314 314 314 314 313 313 314 314 313 313 313 312 311 312 312 312 312 312 311 311 311 311 311 310 310 310 310 310 310 310 310 309 309 309 309
319 320 318 318 317 315 317 317 316 316 314 314 315 315 315 315 315 314 314 314 314 313 314 313 313 313 312 312 311 311 311 310 311 310 310 310 309 310 310 310 310 310 310 310 310 310 310 310 310 310 308 308 308 309
320 319 316 316 315 316 317 317 318 315 314 315 315 315 315 315 315 315 315 315 314 314 313 313 312 311 310 310 309 309 308 308 308 307 307 306 306 306 306 306 306 306 305 305 305 305 306 306 306 306 306 307 307 307
319 319 317 316 318 319 319 318 317 316 316 315 315 315 315 315 314 315 315 315 314 313 312 312 311 309 307 306 306 306 305 305 304 304 304 304 303 303 302 302 302 302 302 303 304 305 306 306 307 307 307 308 308 309
317 317 318 318 317 318 316 318 317 317 317 316 316 315 315 315 315 314 312 312 312 311 311 310 307 306 305 305 304 304 303 303 303 302 302 302 301 301 301 300 300 301 302 302 304 304 304 303 303 303 303 303 304 304
Wind_Speed
20 19 17 16 14 15 15 13 12 11 10 10 11 11 11 9 8 10 10 8 11 7 21 26 25 17 10 4 2 8 9 2 3 2 5 5 4 6 2 6 9 8 7 5 3 3 7 9 5 17 10 7 27 32
20 19 17 14 15 14 12 13 12 11 10 11 12 11 12 11 10 10 9 6 10 13 19 21 30 22 21 17 15 5 5 4 2 2 2 1 2 1 5 5 2 3 7 7 9 8 5 10 2 10 18 19 16 28
19 20 19 17 15 15 15 17 12 9 9 10 11 12 13 13 12 12 13 10 13 12 27 22 26 14 22 29 30 9 7 2 5 8 2 3 5 4 4 6 4 3 3 5 4 5 6 7 10 6 13 13 20 25
19 19 19 18 18 18 16 15 15 13 13 13 13 14 15 14 13 13 15 13 13 6 5 8 8 14 9 15 22 32 22 6 16 17 4 3 3 5 3 3 3 4 6 6 4 2 0 5 12 11 16 13 19 20
21 20 19 18 17 17 17 15 14 14 14 14 15 15 15 13 13 14 17 17 16 13 4 15 27 4 14 22 22 22 27 27 13 5 1 4 4 1 1 1 3 4 6 5 5 13 7 9 14 13 18 22 23 26
21 20 19 19 18 17 17 17 17 17 18 18 18 18 15 13 13 12 5 5 6 18 5 4 8 2 2 10 19 18 18 16 8 4 6 7 5 1 1 3 2 12 12 8 3 10 5 11 14 15 18 22 25 28
20 20 20 19 18 18 18 19 20 20 19 21 20 16 13 11 12 7 4 3 7 9 3 4 6 3 2 13 16 12 10 8 7 5 4 4 4 2 2 3 7 17 12 9 13 15 12 16 11 18 19 24 29 34
21 20 20 20 19 19 20 20 22 23 25 23 12 10 9 8 9 4 1 13 14 9 4 3 4 5 4 5 8 13 8 6 6 5 5 3 7 1 3 2 15 12 6 4 21 13 11 16 22 25 27 32 36 40
21 20 20 20 19 20 22 24 27 28 26 17 11 4 5 2 2 5 10 4 9 8 4 3 1 3 9 5 3 8 9 1 4 3 3 2 3 2 3 10 13 16 12 2 10 10 17 24 29 32 34 37 42 46
20 19 17 18 19 20 23 26 29 27 22 12 3 2 2 3 10 7 2 3 6 6 5 3 2 3 5 5 2 3 6 4 2 4 6 1 3 6 7 12 14 10 10 14 20 19 26 30 32 31 33 36 39 45
19 19 19 19 20 22 26 28 27 23 17 11 5 2 7 10 3 4 3 6 6 3 5 4 3 3 4 3 2 3 2 3 4 4 2 2 3 4 10 12 8 9 10 3 3 15 21 30 34 38 36 37 44 49
20 20 20 21 24 24 29 24 21 19 15 10 7 5 8 7 6 3 2 1 3 2 1 2 5 3 1 1 2 2 2 2 1 4 1 2 4 5 6 7 10 10 6 11 11 21 24 29 33 36 38 42 45 46
21 22 22 22 23 24 26 18 16 18 12 4 5 3 4 1 1 2 3 3 1 5 2 1 1 1 1 1 1 3 5 1 2 1 3 3 5 2 4 12 16 13 13 16 19 19 23 25 24 26 33 36 38 35
23 23 22 20 22 22 19 14 14 14 5 4 5 6 5 4 3 3 7 7 5 4 13 8 2 4 4 2 2 3 3 2 3 2 2 3 4 2 5 14 18 20 20 24 27 28 29 30 33 33 32 32 31 28
24 21 19 21 19 15 13 10 11 10 6 5 6 6 4 10 17 18 18 14 10 12 7 0 1 2 1 2 1 1 2 1 3 3 2 9 3 5 8 18 22 24 26 29 33 36 37 34 31 31 30 26 22 23
24 21 23 21 16 13 13 6 9 7 4 5 6 5 17 9 14 20 24 17 18 13 5 3 2 2 3 2 1 3 2 3 3 3 15 11 6 11 14 20 23 24 25 32 36 36 36 32 27 23 15 16 13 13
21 18 22 16 11 14 13 7 6 7 6 6 6 11 18 13 15 20 23 25 24 8 3 2 4 5 1 3 2 3 2 5 17 5 2 12 11 11 13 18 28 28 27 39 35 23 15 18 23 23 16 13 10 8
20 19 21 16 15 5 18 12 6 5 6 6 6 21 25 16 22 20 18 22 17 11 6 4 5 5 3 4 2 4 7 15 18 18 15 7 13 12 11 13 13 14 20 22 21 22 20 21 20 20 18 16 16 17
19 20 22 23 15 11 6 9 8 4 3 9 16 20 18 19 23 27 28 26 21 14 4 5 4 3 3 4 6 14 13 11 12 15 16 16 10 10 10 12 17 17 14 15 14 16 18 16 17 19 20 20 18 18
16 17 17 18 20 7 5 6 5 5 7 9 15 19 12 17 26 27 28 29 22 19 11 5 5 12 9 16 11 10 12 13 19 21 23 21 15 13 13 14 16 18 20 19 18 14 14 15 16 15 14 13 14 15
14 15 15 17 12 11 6 6 6 5 7 8 17 12 9 17 24 26 26 24 17 10 8 15 23 24 23 26 24 21 21 22 22 23 26 29 27 22 21 19 15 13 14 15 14 13 12 12 13 13 12 11 11 12
16 17 13 10 9 6 8 9 4 6 5 8 13 11 8 9 11 15 18 15 9 9 14 20 19 21 23 25 25 22 21 21 19 18 17 20 19 16 19 17 14 17 15 12 11 11 12 12 13 12 11 10 10 10
14 13 7 8 4 5 3 8 6 8 5 11 10 6 7 9 14 11 7 10 8 15 19 21 16 18 17 16 19 19 19 19 20 18 16 16 14 11 11 9 9 10 10 10 8 7 8 10 11 10 8 7 9 8
6 8 6 5 6 3 4 4 3 4 4 5 4 5 6 9 12 9 3 11 20 20 23 23 18 17 18 19 20 20 18 17 18 17 16 16 15 14 13 12 11 8 5 7 6 5 5 4 9 9 9 8 10 11
5 5 5 6 5 4 2 3 3 3 1 2 3 3 4 6 4 5 4 15 20 21 20 20 16 16 16 17 18 18 16 15 14 14 15 16 13 11 9 8 7 5 5 3 2 1 3 5 7 8 9 11 12 13
4 4 4 5 3 3 2 2 2 2 0 0 1 3 4 4 4 3 5 16 16 17 16 17 20 16 11 13 16 17 18 19 15 11 7 6 7 10 11 6 5 7 6 7 5 5 5 6 8 9 11 12 13 14
3 2 3 3 2 2 1 2 1 2 2 2 1 2 2 3 3 4 8 12 13 12 12 10 11 14 16 7 9 11 11 13 12 9 7 7 8 8 10 10 8 5 5 6 5 8 10 11 12 11 13 13 14 17
2 2 2 10 3 1 0 1 1 2 1 1 2 3 2 2 3 6 8 6 6 5 8 8 10 12 11 9 9 10 11 12 10 8 7 7 7 9 9 9 9 9 10 11 13 12 12 13 15 17 18 20 19 19
1 3 2 3 3 1 3 3 4 3 2 2 3 1 1 1 3 5 5 6 8 6 9 8 10 8 11 12 13 14 17 20 16 11 11 12 13 12 12 13 13 13 14 13 13 13 15 17 19 20 21 23 25 25
1 3 1 3 2 2 3 4 11 3 2 3 3 4 4 6 5 6 7 7 10 11 8 7 7 8 11 12 15 17 19 18 17 15 13 13 14 15 16 16 15 17 18 19 21 23 23 23 23 25 26 27 25 23
1 2 2 1 2 2 6 6 3 5 4 5 6 10 8 4 2 3 4 5 4 5 6 7 10 13 15 18 20 19 13 12 12 13 13 15 18 20 21 22 24 25 26 27 27 27 27 27 27 26 26 27 27 26
0 0 1 1 2 5 4 2 3 3 1 2 6 8 6 6 4 6 6 5 4 7 7 12 16 15 17 16 14 13 11 13 17 19 22 23 24 24 24 24 22 22 21 20 20 19 17 17 17 17 17 18 18 18
1 2 2 1 2 2 3 2 1 1 2 5 5 8 7 4 3 3 2 2 3 6 14 16 12 13 13 16 17 17 19 21 22 23 21 18 17 18 18 18 17 15 14 13 12 12 14 15 16 16 16 16 17 17
Wind_Direction
358 1 1 7 0 355 351 344 333 325 310 304 306 323 335 325 321 294 313 258 251 262 277 269 264 259 261 288 292 317 330 341 5 181 157 207 173 220 157 182 170 156 147 183 133 145 264 165 84 185 188 215 191 188
353 355 358 359 353 355 352 342 339 325 313 308 302 302 318 323 315 300 276 270 265 260 260 271 277 264 253 258 256 272 271 284 243 38 354 321 213 157 169 206 68 185 180 176 174 205 241 202 226 217 193 197 187 192
353 352 349 349 346 340 337 338 334 329 321 303 303 303 309 311 310 298 290 278 271 278 294 273 272 276 245 241 245 235 255 205 85 46 325 268 252 140 172 241 144 235 165 150 111 228 223 215 223 219 195 203 187 190
357 354 352 348 344 342 341 334 326 324 318 313 306 300 302 304 300 288 283 283 265 279 276 290 309 293 242 229 223 231 230 238 318 327 231 241 248 204 227 251 197 194 137 171 262 351 216 237 208 209 203 186 169 173
358 357 353 351 348 346 345 346 344 339 334 328 320 312 305 300 294 287 285 280 271 226 274 292 305 273 219 233 235 230 235 247 283 303 214 237 242 198 249 27 266 209 175 159 217 203 168 200 196 192 186 177 176 169
358 357 356 355 355 356 355 349 343 338 333 329 322 312 302 294 292 314 306 291 238 209 260 290 316 321 87 194 207 214 219 227 225 249 243 268 262 192 230 223 272 334 297 248 262 186 160 160 169 180 185 177 174 172
354 353 352 351 351 350 347 342 338 336 333 325 314 309 294 280 277 264 255 288 179 171 259 287 294 271 39 162 186 179 233 220 219 256 247 254 283 301 184 234 326 338 320 255 209 152 116 159 168 173 175 163 164 159
344 345 345 343 343 344 343 343 340 337 334 329 320 311 301 283 290 276 316 227 227 248 263 267 259 320 41 144 116 162 211 217 233 263 282 256 300 269 251 298 338 343 3 180 177 196 179 172 163 166 171 166 159 154
340 341 342 342 346 345 343 343 336 336 338 329 322 309 268 241 273 277 315 223 224 210 279 263 275 273 359 91 136 129 174 209 249 233 252 293 289 239 269 318 321 332 321 125 170 160 156 164 161 164 167 164 159 153
341 341 343 342 341 341 342 341 334 340 346 345 329 336 266 231 303 304 227 185 174 217 230 248 263 279 0 18 43 111 180 196 177 240 274 126 271 280 295 322 324 332 132 138 125 128 149 151 156 153 155 156 154 151
337 336 333 331 330 335 342 341 339 351 357 353 331 289 305 307 269 200 232 194 184 223 212 250 260 300 22 39 25 40 256 198 190 230 156 295 276 275 334 342 360 133 161 332 158 159 159 162 158 157 156 156 156 154
332 330 329 327 326 328 338 343 342 352 344 331 352 360 0 6 343 320 314 261 220 9 226 256 251 226 351 40 127 189 237 42 207 347 324 216 254 295 354 41 107 137 134 106 137 143 150 154 157 155 154 154 154 151
329 326 324 325 326 326 334 342 344 344 350 350 7 23 6 19 324 300 304 265 264 294 251 353 156 173 220 220 25 15 31 209 321 178 248 249 296 251 90 114 116 124 125 119 122 132 140 133 141 146 144 143 144 147
346 338 328 326 326 327 333 343 351 1 2 5 4 9 353 357 338 316 304 301 278 278 318 326 197 191 175 182 178 151 198 232 186 168 228 310 260 225 130 135 137 128 127 123 124 129 128 132 133 135 136 139 142 144
342 344 347 347 344 344 350 352 6 22 17 35 27 10 341 313 300 307 324 315 330 334 330 114 84 182 146 177 76 54 10 297 200 221 202 346 282 152 144 141 135 137 136 134 136 134 131 130 134 137 142 148 152 154
348 353 355 352 349 356 8 37 33 40 39 40 42 357 326 318 330 337 332 315 342 13 78 54 46 33 47 326 57 17 82 283 303 315 328 303 184 138 140 138 137 135 137 133 131 127 127 122 119 120 121 126 131 151
4 357 359 0 1 25 25 55 47 42 39 20 354 341 336 309 306 326 339 346 15 32 33 14 32 15 345 36 65 357 30 244 267 287 50 152 163 176 156 142 133 133 122 136 137 145 158 156 166 173 185 185 199 220
8 13 19 19 22 17 32 38 58 51 31 5 339 338 346 345 337 354 13 7 10 15 14 33 1 29 33 10 18 359 360 12 48 60 70 139 162 153 165 179 180 163 151 155 154 149 148 153 162 161 173 169 165 174
18 19 25 28 26 29 41 37 32 50 343 337 347 358 1 6 18 30 31 27 26 15 33 25 48 25 351 347 341 348 26 32 45 62 69 76 110 130 124 140 139 150 155 149 148 164 182 178 157 157 160 161 168 169
23 16 16 27 27 32 62 46 18 14 1 338 356 355 11 17 32 38 38 39 39 36 34 36 17 4 350 15 27 26 39 50 66 67 69 80 98 123 128 126 123 124 126 127 126 139 143 146 143 146 156 161 167 171
22 26 26 21 28 42 58 25 36 17 339 354 1 4 5 33 26 23 26 33 40 34 19 21 27 41 43 48 58 68 62 55 78 83 76 75 67 88 109 107 110 117 122 123 125 131 140 135 136 144 145 150 162 164
20 25 28 28 27 44 43 29 29 358 12 7 13 20 16 6 359 7 23 27 30 20 18 28 37 37 44 47 48 53 58 63 72 77 81 95 88 86 94 103 112 119 127 134 130 131 143 153 157 153 154 158 169 188
28 19 14 16 34 39 33 7 17 16 35 353 15 20 4 8 9 18 25 14 14 13 23 27 40 52 53 55 54 53 52 57 63 64 66 72 81 87 100 104 114 144 158 167 178 196 201 203 199 197 200 212 213 216
345 1 6 22 29 36 1 25 39 25 29 17 12 1 354 357 10 25 5 11 26 42 35 34 53 57 55 54 51 53 54 55 61 65 62 57 59 63 69 74 81 94 145 174 179 213 230 188 181 195 210 226 248 257
13 14 9 9 10 7 54 11 14 48 29 357 32 349 350 13 23 0 341 1 32 34 30 36 52 65 61 54 48 43 42 44 46 44 48 48 52 52 48 44 48 55 66 78 87 123 203 227 236 248 254 262 271 271
48 5 18 352 348 13 353 46 14 338 239 132 354 358 21 59 24 350 330 12 24 30 37 38 39 48 57 63 50 39 35 31 27 29 30 35 23 9 1 12 21 18 358 346 324 305 298 289 283 282 283 282 285 288
27 321 331 332 340 296 354 43 81 77 26 26 340 37 56 47 339 304 13 19 22 14 31 47 50 40 41 57 56 44 21 17 15 18 29 40 21 18 22 15 5 22 5 335 293 282 284 279 278 281 284 285 285 288
243 314 349 334 314 330 202 311 61 31 347 94 81 41 98 182 248 343 348 49 62 43 38 49 48 45 39 40 36 23 14 8 2 355 359 9 357 356 350 345 333 318 307 308 304 300 295 286 281 280 279 281 276 271
274 270 227 309 320 19 34 7 359 28 88 99 114 177 147 109 14 359 40 45 32 15 1 12 10 8 21 25 16 8 3 355 340 330 332 331 325 322 317 308 299 296 296 297 296 299 306 308 307 305 304 300 294 287
233 299 297 58 346 330 54 16 344 322 204 172 144 138 123 112 104 72 60 40 32 21 4 9 15 6 3 358 358 355 349 342 341 348 351 349 344 336 332 324 311 302 301 302 304 304 303 301 299 300 303 302 300 295
294 333 35 117 260 325 331 349 37 142 168 196 174 154 133 105 64 34 357 336 356 2 341 337 341 349 355 351 348 345 342 340 338 335 332 328 324 320 318 315 312 310 308 307 306 306 306 305 306 305 304 304 303 303
223 51 127 339 303 347 3 33 97 117 87 202 189 183 175 186 247 277 317 338 323 332 10 3 336 348 348 346 341 345 341 330 325 324 322 319 318 317 317 317 317 317 318 321 321 318 315 312 312 315 322 323 325 322
161 138 185 247 296 319 359 17 97 135 192 207 214 215 225 234 244 247 282 320 345 28 4 343 349 351 345 339 333 331 331 331 328 324 322 322 323 327 328 329 334 331 331 326 328 333 334 337 338 338 337 337 335 334